• In Belarus
  • List of Countries
  • For 7 days
  • Water Temperature
  • Satellite Maps
  • Weather Map
  • Weather Widgets
  • user-avatar
    Login

    Hourly Weather Nizwa

    Today, 22 January, Monday

    Time Temperature Precipitation Wind Pressure Humidity
    00:00 +16°C° 0 mm 3 mps 696 mmHg 52%
    01:00 +14°C° 0 mm 3 mps 696 mmHg 55%
    02:00 +14°C° 0 mm 3 mps 696 mmHg 55%
    03:00 +13°C° 0 mm 3 mps 696 mmHg 54%
    04:00 +13°C° 0 mm 3 mps 696 mmHg 54%
    05:00 +12°C° 0 mm 3 mps 696 mmHg 49%
    06:00 +12°C° 0 mm 3 mps 696 mmHg 45%
    07:00 +12°C° 0 mm 3 mps 697 mmHg 40%
    08:00 +14°C° 0 mm 3 mps 697 mmHg 37%
    09:00 +16°C° 0 mm 3 mps 698 mmHg 34%
    10:00 +18°C° 0 mm 3 mps 698 mmHg 31%
    11:00 +19°C° 0 mm 2 mps 698 mmHg 29%
    12:00 +21°C° 0 mm 2 mps 698 mmHg 26%
    13:00 +23°C° 0 mm 2 mps 697 mmHg 24%
    14:00 +23°C° 0 mm 2 mps 697 mmHg 24%
    15:00 +22°C° 0 mm 3 mps 697 mmHg 24%
    16:00 +24°C° 0 mm 3 mps 697 mmHg 21%
    17:00 +22°C° 0 mm 3 mps 697 mmHg 25%
    18:00 +20°C° 0 mm 2 mps 697 mmHg 30%
    19:00 +19°C° 0 mm 2 mps 697 mmHg 34%
    20:00 +19°C° 0 mm 2 mps 697 mmHg 36%
    21:00 +18°C° 0 mm 2 mps 697 mmHg 38%
    22:00 +18°C° 0 mm 1 mps 697 mmHg 40%
    23:00 +18°C° 0 mm 1 mps 697 mmHg 42%

    Tomorrow, 23 January, Tuesday

    Time Temperature Precipitation Wind Pressure Humidity
    00:00 +16°C° 0 mm 1 mps 696 mmHg 43%
    01:00 +16°C° 0 mm 1 mps 696 mmHg 45%
    02:00 +15°C° 0 mm 1 mps 696 mmHg 45%
    03:00 +15°C° 0 mm 1 mps 696 mmHg 46%
    04:00 +14°C° 0 mm 1 mps 696 mmHg 46%
    05:00 +14°C° 0 mm 1 mps 696 mmHg 46%
    06:00 +13°C° 0 mm 1 mps 696 mmHg 45%
    07:00 +13°C° 0 mm 1 mps 696 mmHg 44%
    08:00 +15°C° 0 mm 1 mps 697 mmHg 37%
    09:00 +19°C° 0 mm 1 mps 697 mmHg 29%
    10:00 +22°C° 0 mm 1 mps 698 mmHg 21%
    11:00 +23°C° 0 mm 1 mps 698 mmHg 18%
    12:00 +24°C° 0 mm 1 mps 697 mmHg 16%
    13:00 +25°C° 0 mm 2 mps 697 mmHg 13%
    14:00 +25°C° 0 mm 2 mps 697 mmHg 13%
    15:00 +26°C° 0 mm 2 mps 697 mmHg 13%
    16:00 +26°C° 0 mm 3 mps 696 mmHg 13%
    17:00 +25°C° 0 mm 2 mps 697 mmHg 15%
    18:00 +23°C° 0 mm 2 mps 697 mmHg 17%
    19:00 +21°C° 0 mm 2 mps 697 mmHg 20%
    20:00 +20°C° 0 mm 2 mps 697 mmHg 21%
    21:00 +19°C° 0 mm 2 mps 697 mmHg 22%
    22:00 +20°C° 0 mm 1 mps 697 mmHg 24%
    23:00 +19°C° 0 mm 1 mps 696 mmHg 25%

    Day after tomorrow, 24 January, Wednesday

    Time Temperature Precipitation Wind Pressure Humidity
    00:00 +18°C° 0 mm 1 mps 696 mmHg 27%
    01:00 +16°C° 0 mm 1 mps 696 mmHg 29%
    02:00 +16°C° 0 mm 1 mps 696 mmHg 30%
    03:00 +15°C° 0 mm 1 mps 695 mmHg 32%
    04:00 +15°C° 0 mm 1 mps 695 mmHg 34%
    05:00 +14°C° 0 mm 1 mps 695 mmHg 35%
    06:00 +14°C° 0 mm 1 mps 695 mmHg 36%
    07:00 +13°C° 0 mm 1 mps 695 mmHg 37%
    08:00 +16°C° 0 mm 1 mps 696 mmHg 32%
    09:00 +19°C° 0 mm 1 mps 697 mmHg 27%
    10:00 +22°C° 0 mm 1 mps 698 mmHg 22%
    11:00 +23°C° 0 mm 1 mps 698 mmHg 19%
    12:00 +25°C° 0 mm 2 mps 697 mmHg 16%
    13:00 +26°C° 0 mm 2 mps 697 mmHg 14%
    14:00 +27°C° 0 mm 2 mps 697 mmHg 14%
    15:00 +27°C° 0 mm 2 mps 697 mmHg 13%
    16:00 +27°C° 0 mm 2 mps 696 mmHg 13%
    17:00 +26°C° 0 mm 2 mps 696 mmHg 16%
    18:00 +24°C° 0 mm 2 mps 696 mmHg 18%
    19:00 +23°C° 0 mm 1 mps 696 mmHg 21%
    20:00 +22°C° 0 mm 1 mps 696 mmHg 23%
    21:00 +21°C° 0 mm 1 mps 696 mmHg 25%
    22:00 +20°C° 0 mm 1 mps 696 mmHg 27%
    23:00 +19°C° 0 mm 1 mps 696 mmHg 27%

    25 January, Thursday

    Time Temperature Precipitation Wind Pressure Humidity
    00:00 +19°C° 0 mm 1 mps 696 mmHg 28%
    01:00 +16°C° 0 mm 0 mps 696 mmHg 29%
    02:00 +16°C° 0 mm 0 mps 695 mmHg 30%
    03:00 +16°C° 0 mm 1 mps 695 mmHg 32%
    04:00 +16°C° 0 mm 1 mps 695 mmHg 33%
    05:00 +16°C° 0 mm 1 mps 695 mmHg 35%
    06:00 +15°C° 0 mm 1 mps 695 mmHg 36%
    07:00 +15°C° 0 mm 1 mps 696 mmHg 38%
    08:00 +18°C° 0 mm 1 mps 696 mmHg 33%
    09:00 +21°C° 0 mm 1 mps 697 mmHg 28%
    10:00 +23°C° 0 mm 1 mps 698 mmHg 22%
    11:00 +25°C° 0 mm 1 mps 698 mmHg 21%
    12:00 +26°C° 0 mm 1 mps 697 mmHg 19%
    13:00 +27°C° 0 mm 1 mps 697 mmHg 17%
    14:00 +27°C° 0 mm 1 mps 696 mmHg 16%
    15:00 +27°C° 0 mm 2 mps 696 mmHg 16%
    16:00 +28°C° 0 mm 2 mps 696 mmHg 15%
    17:00 +26°C° 0 mm 2 mps 696 mmHg 17%
    18:00 +25°C° 0 mm 2 mps 696 mmHg 19%
    19:00 +24°C° 0 mm 1 mps 696 mmHg 21%
    20:00 +23°C° 0 mm 1 mps 696 mmHg 22%
    21:00 +22°C° 0 mm 1 mps 696 mmHg 23%
    22:00 +21°C° 0 mm 1 mps 697 mmHg 25%
    23:00 +20°C° 0 mm 1 mps 696 mmHg 26%

    26 January, Friday

    Time Temperature Precipitation Wind Pressure Humidity
    00:00 +20°C° 0 mm 1 mps 696 mmHg 28%
    01:00 +19°C° 0 mm 1 mps 695 mmHg 30%
    02:00 +18°C° 0 mm 1 mps 695 mmHg 33%
    03:00 +18°C° 0 mm 1 mps 695 mmHg 36%
    04:00 +16°C° 0 mm 1 mps 695 mmHg 38%
    05:00 +16°C° 0 mm 1 mps 695 mmHg 40%
    06:00 +15°C° 0 mm 1 mps 695 mmHg 41%
    07:00 +15°C° 0 mm 1 mps 695 mmHg 42%
    08:00 +19°C° 0 mm 1 mps 696 mmHg 36%
    09:00 +21°C° 0 mm 1 mps 697 mmHg 30%
    10:00 +23°C° 0 mm 1 mps 698 mmHg 24%
    11:00 +25°C° 0 mm 1 mps 698 mmHg 22%
    12:00 +26°C° 0 mm 1 mps 697 mmHg 19%
    13:00 +27°C° 0 mm 2 mps 697 mmHg 16%
    14:00 +27°C° 0 mm 2 mps 697 mmHg 16%
    15:00 +27°C° 0 mm 2 mps 696 mmHg 15%
    16:00 +28°C° 0 mm 2 mps 696 mmHg 15%
    17:00 +26°C° 0 mm 2 mps 696 mmHg 18%
    18:00 +25°C° 0 mm 1 mps 696 mmHg 21%
    19:00 +24°C° 0 mm 1 mps 696 mmHg 24%
    20:00 +23°C° 0 mm 1 mps 696 mmHg 27%
    21:00 +22°C° 0 mm 1 mps 697 mmHg 29%
    22:00 +21°C° 0 mm 1 mps 697 mmHg 31%
    23:00 +20°C° 0 mm 1 mps 696 mmHg 34%

    27 January, Saturday

    Time Temperature Precipitation Wind Pressure Humidity
    00:00 +20°C° 0 mm 1 mps 696 mmHg 38%
    01:00 +19°C° 0 mm 1 mps 695 mmHg 42%
    02:00 +18°C° 0 mm 1 mps 695 mmHg 45%
    03:00 +16°C° 0 mm 0 mps 695 mmHg 47%
    04:00 +15°C° 0 mm 0 mps 695 mmHg 50%
    05:00 +15°C° 0 mm 0 mps 695 mmHg 51%
    06:00 +14°C° 0 mm 0 mps 695 mmHg 52%
    07:00 +14°C° 0 mm 0 mps 695 mmHg 53%
    08:00 +17°C° 0 mm 0 mps 696 mmHg 45%
    09:00 +19°C° 0 mm 0 mps 697 mmHg 37%
    10:00 +22°C° 0 mm 0 mps 698 mmHg 29%
    11:00 +25°C° 0 mm 1 mps 697 mmHg 26%
    12:00 +26°C° 0 mm 1 mps 697 mmHg 23%
    13:00 +27°C° 0 mm 1 mps 696 mmHg 19%
    14:00 +28°C° 0 mm 1 mps 696 mmHg 19%
    15:00 +28°C° 0 mm 2 mps 696 mmHg 18%
    16:00 +28°C° 0 mm 2 mps 695 mmHg 17%
    17:00 +27°C° 0 mm 2 mps 695 mmHg 20%
    18:00 +26°C° 0 mm 1 mps 696 mmHg 23%
    19:00 +25°C° 0 mm 1 mps 696 mmHg 25%
    20:00 +24°C° 0 mm 1 mps 696 mmHg 27%
    21:00 +23°C° 0 mm 1 mps 696 mmHg 28%
    22:00 +22°C° 0 mm 1 mps 696 mmHg 30%
    23:00 +21°C° 0 mm 1 mps 695 mmHg 32%
    Show more